Dean International
Flight School

Career Spotlight

Mika

Mika

Congratulations to Mika from Khazakstan. She recently sent us this photo of her flying an Airbus airliner.

More...
Mika's Success Story
close

Congratulations to Mika from Khazakstan. She recently sent us this photo of her flying an Airbus airliner.

Mario

Mario

My dreams could not have been realized if I wouldn't have been part of the Dean International family.

More...
Mario's Success Story
close

"My dreams could not have been realized if I wouldn't have been part of the Dean International family. Thank you Robert, thanks to all my co-workers, and thanks to all of my students!"

Fernando

Fernando

I am now working as a First Officer at TACA and am enjoying every moment of it.

More...
Fernando's Success Story
close

"Will never forget my time of flight training at Dean International. I am now working as a First Officer at TACA and am enjoying every moment of it."

Alvaro

Alvaro

Because of the flight time I was able to built while instructing, I got the experience needed to apply to an airline in Colombia.

More...
Alvaro's Success Story
close

Dean alumnus Alvaro Londoño currently flies with Tampa Cargo. He says of his experience at Dean: "I want to take this opportunity to thank you for giving me the chance to build my experience and expand my knowledge in Dean International. Because of the flight time I was able to built flight instructing, I got the experience needed to apply to an airline in Colombia."

Ralph

Ralph

Every Aruban student of Dean International has made it into Tiara Air Aruba, that is very nice.

More...
Ralph's Success Story
close

"Next to me is my Co-Pilot, Elison. This picture was taken on our first flight together, which was almost exactly 5 years after I finished at Dean International. [...] Every Aruban student of Dean International has made it into Tiara Air Aruba. [...] The future looks bright here in Aruba."

Rohaan

Rohaan

The [..] staff will all work diligently to help you finish your certificates as safely and efficiently as possible.

More...
Rohaan's Success Story
close

After receiving very hard times from other flight schools [...], I came to Dean International where Robert Dean personally sat down with me and gave me a financial and chronological look into how much remained to finish my private pilot certificate. Through his hard efforts as an instructor and mentor, I was able to finish my private pilot certificate within one week.

Welcome to Dean International

In over two decades, Dean International has educated over 7,000 pilots from all over the world, including over 1,000 students from India alone. By offering a great training experience, a friendly service staff, an ample variety of aircraft, and by improving constantly, we have become one of the largest, most prestigious FAA 141-approved flight schools in North America. Located in Miami, Florida, USA, our flight school offers an ideal location for year-round, "learn to fly" weather, flight training. Dean International is not only well-equipped to provide services to professional trainees but also caters to General Aviation renters. Visit or contact our headquarters at Kendall-Tamiami Executive Airport located in Miami, FL today to learn more about us, or simply read more about our programs if you are an international student interested in joining our school.

Local Airport Information
TAF FOR KTMB (Issued: Sat, March 7th 2015 3:18 AM UTC)
TAF
      AMD KTMB 070315Z 0703/0724 13006KT P6SM VCSH FEW020
      FM070500 01006KT P6SM SCT015 BKN050
      TEMPO 0708/0712 BKN015 BKN040
      FM071300 03008KT P6SM OVC040
     
METAR FOR KTMB (Issued: Sat, March 7th 2015 3:53 AM UTC):
KTMB 070353Z 00000KT 10SM FEW020 21/20 A3020 RMK AO2 SLP226 T02110200

This weather information is provided by the National Weather Service.
It is automatically refreshed every three minutes.
TAF FOR KHST (Issued: Sat, March 7th 2015 12:11 AM UTC)
TAF KHST 0700/0806 06009KT 9999 FEW050 QNH3009INS
      BECMG 0711/0712 03012KT 9999 SCT030 BKN050 QNH3008INS
      BECMG 0720/0721 07012KT 9999 FEW060 QNH3007INS TX27/0718Z TN19/0712Z
     
METAR FOR KHST (Issued: Sat, March 7th 2015 3:58 AM UTC):
KHST 070358Z AUTO 01001KT 10SM CLR 22/20 A3019 RMK AO2 SLP226 T02190203

This weather information is provided by the National Weather Service.
It is automatically refreshed every three minutes.
TAF FOR KOPF (Issued: Sat, March 7th 2015 3:12 AM UTC)
TAF
      AMD KOPF 070311Z 0703/0724 10005KT P6SM SCT023 BKN070
      FM070500 02008KT P6SM SCT015 BKN050
      TEMPO 0707/0711 BKN015 BKN040
      FM071400 04010KT P6SM OVC045
     
METAR FOR KOPF (Issued: Sat, March 7th 2015 4:12 AM UTC):
KOPF 070412Z AUTO 00000KT 10SM BKN020 BKN065 24/21 A3020 RMK AO2 T02440211

This weather information is provided by the National Weather Service.
It is automatically refreshed every three minutes.
TAF FOR KMIA (Issued: Sat, March 7th 2015 3:18 AM UTC)
TAF
      AMD KMIA 070313Z 0703/0724 VRB02KT P6SM SCT020 BKN070
      TEMPO 0703/0705 BKN020 BKN040
      FM070500 02005KT P6SM SCT015 BKN050
      TEMPO 0708/0712 BKN015 BKN040
      FM071400 04008KT P6SM OVC045
     
METAR FOR KMIA (Issued: Sat, March 7th 2015 3:53 AM UTC):
KMIA 070353Z 10006KT 10SM SCT020 BKN041 24/21 A3020 RMK AO2 SLP225 T02440206

This weather information is provided by the National Weather Service.
It is automatically refreshed every three minutes.
Design by Ariel Llizo
© Dean International Inc. 2012